EW4858 Weather Reports


Display with metric or nautical units.
time (UTC)temp
F
wind
direction
speed
MPH
gust
MPH
rain 1hr
in
rain 24hr
in
rain mn
in
humidity
%
barometer
mb
20260505024502 61 58 6.0 11.0 0.00 0.00 0.00 70 1010.9
20260505023002 62 46 3.0 9.0 0.00 0.00 0.00 69 1010.9
20260505021504 62 84 6.0 10.0 0.00 0.00 0.00 67 1010.8
20260505014559 63 46 4.0 12.0 0.00 0.00 0.00 64 1010.7
20260505013101 64 121 3.0 9.0 0.00 0.00 0.00 63 1010.8
20260505011611 65 41 6.0 12.0 0.00 0.00 0.00 61 1010.9
20260505010057 65 68 6.0 11.0 0.00 0.00 0.00 58 1010.9
20260505004607 66 38 6.0 14.0 0.00 0.00 0.00 59 1011.0
20260505003057 66 23 6.0 12.0 0.00 0.00 0.00 58 1010.9
20260505001617 66 44 5.0 14.0 0.00 0.00 0.00 58 1010.9
20260505000108 66 57 6.0 14.0 0.00 0.00 0.00 58 1011.0
20260504234557 66 30 9.0 15.0 0.00 0.00 0.00 59 1011.1
20260504233109 66 88 8.0 14.0 0.00 0.00 0.00 59 1011.0
20260504231555 66 49 7.0 13.0 0.00 0.00 0.00 59 1010.9
20260504230054 67 42 8.0 16.0 0.00 0.00 0.00 57 1011.0
20260504224553 66 63 10.0 15.0 0.00 0.00 0.00 57 1010.9
20260504223053 67 40 7.0 14.0 0.00 0.00 0.00 54 1010.9
20260504221551 68 55 5.0 14.0 0.00 0.00 0.00 51 1011.1
20260504220051 68 59 6.0 12.0 0.00 0.00 0.00 54 1011.3
20260504214549 67 88 7.0 17.0 0.00 0.00 0.00 54 1011.4
20260504213051 67 77 8.0 17.0 0.00 0.00 0.00 53 1011.4
20260504211550 67 72 7.0 16.0 0.00 0.00 0.00 55 1011.4
20260504210048 67 78 6.0 13.0 0.00 0.00 0.00 56 1011.4
20260504204548 67 40 7.0 18.0 0.00 0.00 0.00 57 1011.6
20260504203050 67 51 7.0 11.0 0.00 0.00 0.00 54 1011.4
20260504201547 67 54 6.0 15.0 0.00 0.00 0.00 52 1011.5
20260504200044 66 46 6.0 12.0 0.00 0.00 0.00 58 1011.6
20260504194548 66 62 7.0 13.0 0.00 0.00 0.00 58 1011.8
20260504193043 66 40 6.0 14.0 0.00 0.00 0.00 55 1011.9
20260504191554 67 103 6.0 15.0 0.00 0.00 0.00 55 1011.9
20260504190041 66 42 5.0 11.0 0.00 0.00 0.00 55 1012.1
20260504184538 66 58 6.0 12.0 0.00 0.00 0.00 58 1012.3
20260504183038 65 57 6.0 11.0 0.00 0.00 0.00 57 1012.4
20260504181536 65 60 4.0 11.0 0.00 0.00 0.00 59 1012.3
20260504180034 64 38 7.0 12.0 0.00 0.00 0.00 61 1012.4
20260504174533 64 345 3.0 7.0 0.00 0.00 0.00 62 1012.2
20260504173029 63 62 5.0 11.0 0.00 0.00 0.00 61 1012.3
20260504171542 63 57 5.0 8.0 0.00 0.00 0.00 66 1012.3
20260504090107 59 101 3.0 9.0 0.00 0.00 0.00 79 1010.8
20260504081552 60 86 3.0 8.0 0.00 0.00 0.00 79 1011.4
20260504044530 61 45 3.0 6.0 0.00 0.00 0.00 73 1011.0
20260504043038 61 66 0.0 6.0 0.00 0.00 0.00 73 1010.9
20260504041525 61 61 3.0 8.0 0.00 0.00 0.00 71 1010.8
20260504040026 61 47 3.0 7.0 0.00 0.00 0.00 71 1010.5
20260504034524 62 69 1.0 5.0 0.00 0.00 0.00 70 1010.7
20260504033028 61 68 3.0 9.0 0.00 0.00 0.00 70 1010.8
20260504031522 62 52 3.0 7.0 0.00 0.00 0.00 69 1010.5
20260504030021 62 42 5.0 8.0 0.00 0.00 0.00 70 1010.3